FLOCK 2E-12 (41573 NORAD) Tracking and Keplerian Element Data

This shows tracking and keplerian element data for the satellite.

Feedback or suggestion? Click here.




ElementValue
Catalog41573
NameFLOCK 2E-12
Epoch Orbit10059
Epoch Day62.65860353
Epoch Year2018
RAAN110.2436
Inclination51.5922
Eccentricity0.00036
Argument of Perigee1.2289
Mean Anonmoly358.7449
Mean Motion16.39031415
Decay Rate0.09928625
L11 41573U 98067JX 18062.65860353 .09928625 12431-4 80990-3 0 9998
L22 41573 51.5922 110.2436 0003600 1.2289 358.7449 16.39031415100592

Live tracking and technical data element details for FLOCK 2E-12 (NORAD 41573). FLOCK 2E-12 can be tracked NOW for your location showing map with azimuth and elevation plus other details from your city location.

Track the satellite on the map from your city or location and see movement details for azimuth, elevation, latitude, longitude, range, height, and movement on the map or in text.







IsCatalogInMostPopularTable: catalog: 41573, numindb: 129
Update: records affected: 1



GetName: 41573 FLOCK 2E-12

Hit Count: updated at: Fri, 16 Nov 2018 11:19:21 GMT